Time,TemperatureF,DewpointF,PressureIn,WindDirection,WindDirectionDegrees,WindSpeedMPH,WindSpeedGustMPH,Humidity,HourlyPrecipIn,Conditions,Clouds,dailyrainin,SolarRadiationWatts/m^2,SoftwareType,DateUTC
2013-08-02 00:02:00,56.0,56.0,-100.00,SSW,206,0.0,0.0,100,0.05,,,0.08,3.000000,,2013-08-02 07:02:00,
2013-08-02 00:33:00,57.0,57.0,-100.00,SSW,200,0.0,4.0,100,0.00,,,0.08,3.000000,,2013-08-02 07:33:00,
2013-08-02 00:44:00,57.0,57.0,-100.00,SSW,200,0.0,4.0,100,0.00,,,0.08,3.000000,,2013-08-02 07:44:00,
2013-08-02 00:53:00,57.0,57.0,-100.00,SSW,200,0.0,4.0,100,0.00,,,0.08,3.000000,,2013-08-02 07:53:00,
2013-08-02 01:02:00,57.0,57.0,-100.00,SSW,200,0.0,4.0,100,0.00,,,0.08,3.000000,,2013-08-02 08:02:00,
2013-08-02 01:33:00,57.0,57.0,-100.00,SSW,194,0.0,4.0,100,0.00,,,0.08,2.000000,,2013-08-02 08:33:00,
2013-08-02 01:43:00,57.0,57.0,-100.00,SSW,194,0.0,4.0,100,0.00,,,0.08,2.000000,,2013-08-02 08:43:00,
2013-08-02 01:54:00,57.0,57.0,-100.00,SSW,194,0.0,4.0,100,0.00,,,0.08,2.000000,,2013-08-02 08:54:00,
2013-08-02 02:02:00,57.0,57.0,-100.00,SSW,194,0.0,4.0,100,0.00,,,0.08,2.000000,,2013-08-02 09:02:00,
2013-08-02 02:33:00,55.0,55.0,-100.00,South,181,0.0,5.0,100,0.00,,,0.08,2.000000,,2013-08-02 09:33:00,
2013-08-02 02:44:00,55.0,55.0,-100.00,South,181,0.0,5.0,100,0.00,,,0.08,2.000000,,2013-08-02 09:44:00,
2013-08-02 02:53:00,55.0,55.0,-100.00,South,181,0.0,5.0,100,0.00,,,0.08,2.000000,,2013-08-02 09:53:00,
2013-08-02 03:02:00,55.0,55.0,-100.00,South,181,0.0,5.0,100,0.00,,,0.08,2.000000,,2013-08-02 10:02:00,
2013-08-02 03:33:00,55.0,55.0,-100.00,South,184,2.0,5.0,100,0.00,,,0.08,2.000000,,2013-08-02 10:33:00,
2013-08-02 03:43:00,55.0,55.0,-100.00,South,184,2.0,5.0,100,0.00,,,0.08,2.000000,,2013-08-02 10:43:00,
2013-08-02 03:52:00,55.0,55.0,-100.00,South,184,2.0,5.0,100,0.00,,,0.08,2.000000,,2013-08-02 10:52:00,
2013-08-02 04:02:00,55.0,55.0,-100.00,South,184,2.0,5.0,100,0.00,,,0.08,2.000000,,2013-08-02 11:02:00,
2013-08-02 04:33:00,55.0,55.0,-100.00,SW,216,0.0,4.0,100,0.00,,,0.08,2.000000,,2013-08-02 11:33:00,
2013-08-02 04:43:00,55.0,55.0,-100.00,SW,216,0.0,4.0,100,0.00,,,0.08,2.000000,,2013-08-02 11:43:00,
2013-08-02 04:52:00,55.0,55.0,-100.00,SW,216,0.0,4.0,100,0.00,,,0.08,2.000000,,2013-08-02 11:52:00,
2013-08-02 05:02:00,55.0,55.0,-100.00,SW,216,0.0,4.0,100,0.00,,,0.08,2.000000,,2013-08-02 12:02:00,
2013-08-02 05:33:00,55.0,55.0,-100.00,South,175,0.0,3.0,100,0.00,,,0.08,2.000000,,2013-08-02 12:33:00,
2013-08-02 05:43:00,55.0,55.0,-100.00,South,175,0.0,3.0,100,0.00,,,0.08,2.000000,,2013-08-02 12:43:00,
2013-08-02 05:52:00,55.0,55.0,-100.00,South,175,0.0,3.0,100,0.00,,,0.08,2.000000,,2013-08-02 12:52:00,
2013-08-02 06:02:00,55.0,55.0,-100.00,South,175,0.0,3.0,100,0.00,,,0.08,2.000000,,2013-08-02 13:02:00,
2013-08-02 06:33:00,55.0,55.0,-100.00,South,176,0.0,4.0,100,0.00,,,0.08,2.000000,,2013-08-02 13:33:00,
2013-08-02 06:43:00,55.0,55.0,-100.00,South,176,0.0,4.0,100,0.00,,,0.08,2.000000,,2013-08-02 13:43:00,
2013-08-02 06:52:00,55.0,55.0,-100.00,South,176,0.0,4.0,100,0.00,,,0.08,2.000000,,2013-08-02 13:52:00,
2013-08-02 07:02:00,55.0,55.0,-100.00,South,176,0.0,4.0,100,0.00,,,0.08,2.000000,,2013-08-02 14:02:00,
2013-08-02 07:43:00,57.0,57.0,-100.00,South,171,0.0,4.0,100,0.00,,,0.08,20.000000,,2013-08-02 14:43:00,
2013-08-02 07:53:00,57.0,57.0,-100.00,South,171,0.0,4.0,100,0.00,,,0.08,20.000000,,2013-08-02 14:53:00,
2013-08-02 08:03:00,57.0,57.0,-100.00,South,171,0.0,4.0,100,0.00,,,0.08,20.000000,,2013-08-02 15:03:00,
2013-08-02 08:32:00,58.0,58.0,-100.00,SW,235,0.0,0.0,100,0.01,,,0.09,52.000000,,2013-08-02 15:32:00,
2013-08-02 08:43:00,58.0,58.0,-100.00,SW,235,0.0,0.0,100,0.01,,,0.09,52.000000,,2013-08-02 15:43:00,
2013-08-02 08:52:00,58.0,58.0,-100.00,SW,235,0.0,0.0,100,0.01,,,0.09,52.000000,,2013-08-02 15:52:00,
2013-08-02 09:01:00,58.0,58.0,-100.00,SW,235,0.0,0.0,100,0.01,,,0.09,52.000000,,2013-08-02 16:01:00,
2013-08-02 09:32:00,57.0,57.0,-100.00,NNW,333,0.0,3.0,100,0.01,,,0.09,186.000000,,2013-08-02 16:32:00,
2013-08-02 09:43:00,57.0,57.0,-100.00,NNW,333,0.0,3.0,100,0.01,,,0.09,186.000000,,2013-08-02 16:43:00,
2013-08-02 09:52:00,57.0,57.0,-100.00,NNW,333,0.0,3.0,100,0.01,,,0.09,186.000000,,2013-08-02 16:52:00,
2013-08-02 10:02:00,57.0,57.0,-100.00,NNW,333,0.0,3.0,100,0.01,,,0.09,186.000000,,2013-08-02 17:02:00,
2013-08-02 10:43:00,59.0,59.0,-100.00,NNW,330,3.0,5.0,100,0.00,,,0.09,322.000000,,2013-08-02 17:43:00,
2013-08-02 10:52:00,59.0,59.0,-100.00,NNW,330,3.0,5.0,100,0.00,,,0.09,322.000000,,2013-08-02 17:52:00,
2013-08-02 11:02:00,59.0,59.0,-100.00,NNW,330,3.0,5.0,100,0.00,,,0.09,322.000000,,2013-08-02 18:02:00,
2013-08-02 11:32:00,59.0,59.0,-100.00,NW,308,3.0,5.0,100,0.00,,,0.08,261.000000,,2013-08-02 18:32:00,
2013-08-02 11:43:00,59.0,59.0,-100.00,NW,308,3.0,5.0,100,0.00,,,0.08,261.000000,,2013-08-02 18:43:00,
2013-08-02 11:52:00,59.0,59.0,-100.00,NW,308,3.0,5.0,100,0.00,,,0.08,261.000000,,2013-08-02 18:52:00,
2013-08-02 12:02:00,59.0,59.0,-100.00,NW,308,3.0,5.0,100,0.00,,,0.08,261.000000,,2013-08-02 19:02:00,
2013-08-02 12:32:00,62.0,62.0,-100.00,North,357,4.0,7.0,99,0.00,,,0.08,309.000000,,2013-08-02 19:32:00,
2013-08-02 12:43:00,62.0,62.0,-100.00,North,357,4.0,7.0,99,0.00,,,0.08,309.000000,,2013-08-02 19:43:00,
2013-08-02 12:52:00,62.0,62.0,-100.00,North,357,4.0,7.0,99,0.00,,,0.08,309.000000,,2013-08-02 19:52:00,
2013-08-02 13:02:00,62.0,62.0,-100.00,North,357,4.0,7.0,99,0.00,,,0.08,309.000000,,2013-08-02 20:02:00,
2013-08-02 13:43:00,65.0,60.0,-100.00,North,349,7.0,10.0,85,0.00,,,0.08,697.000000,,2013-08-02 20:43:00,
2013-08-02 13:52:00,65.0,60.0,-100.00,North,349,7.0,10.0,85,0.00,,,0.08,697.000000,,2013-08-02 20:52:00,
2013-08-02 14:02:00,65.0,60.0,-100.00,North,349,7.0,10.0,85,0.00,,,0.08,697.000000,,2013-08-02 21:02:00,
2013-08-02 14:32:00,62.0,57.0,-100.00,NNW,334,8.0,11.0,83,0.00,,,0.08,761.000000,,2013-08-02 21:32:00,
2013-08-02 14:43:00,62.0,57.0,-100.00,NNW,334,8.0,11.0,83,0.00,,,0.08,761.000000,,2013-08-02 21:43:00,
2013-08-02 14:53:00,62.0,57.0,-100.00,NNW,334,8.0,11.0,83,0.00,,,0.08,761.000000,,2013-08-02 21:53:00,
2013-08-02 15:02:00,62.0,57.0,-100.00,NNW,334,8.0,11.0,83,0.00,,,0.08,761.000000,,2013-08-02 22:02:00,
2013-08-02 15:32:00,62.0,57.0,-100.00,NNW,343,9.0,16.0,84,0.00,,,0.08,889.000000,,2013-08-02 22:32:00,
2013-08-02 15:43:00,62.0,57.0,-100.00,NNW,343,9.0,16.0,84,0.00,,,0.08,889.000000,,2013-08-02 22:43:00,
2013-08-02 15:52:00,62.0,57.0,-100.00,NNW,343,9.0,16.0,84,0.00,,,0.08,889.000000,,2013-08-02 22:52:00,
2013-08-02 16:02:00,62.0,57.0,-100.00,NNW,343,9.0,16.0,84,0.00,,,0.08,889.000000,,2013-08-02 23:02:00,
2013-08-02 16:32:00,62.0,58.0,-100.00,NNW,340,10.0,19.0,86,0.00,,,0.08,803.000000,,2013-08-02 23:32:00,
2013-08-02 16:43:00,62.0,58.0,-100.00,NNW,340,10.0,19.0,86,0.00,,,0.08,803.000000,,2013-08-02 23:43:00,
2013-08-02 16:53:00,62.0,58.0,-100.00,NNW,340,10.0,19.0,86,0.00,,,0.08,803.000000,,2013-08-02 23:53:00,
2013-08-02 17:02:00,62.0,58.0,-100.00,NNW,340,10.0,19.0,86,0.00,,,0.08,803.000000,,2013-08-03 00:02:00,
2013-08-02 17:43:00,63.0,59.0,-100.00,NNW,339,11.0,19.0,86,0.00,,,0.08,679.000000,,2013-08-03 00:43:00,
2013-08-02 17:52:00,63.0,59.0,-100.00,NNW,339,11.0,19.0,86,0.00,,,0.08,679.000000,,2013-08-03 00:52:00,
2013-08-02 18:02:00,63.0,59.0,-100.00,NNW,339,11.0,19.0,86,0.00,,,0.08,679.000000,,2013-08-03 01:02:00,
2013-08-02 18:33:00,62.0,58.0,-100.00,NNW,343,9.0,21.0,87,0.00,,,0.08,509.000000,,2013-08-03 01:33:00,
2013-08-02 18:42:00,62.0,58.0,-100.00,NNW,343,9.0,21.0,87,0.00,,,0.08,509.000000,,2013-08-03 01:42:00,
2013-08-02 18:53:00,62.0,58.0,-100.00,NNW,343,9.0,21.0,87,0.00,,,0.08,509.000000,,2013-08-03 01:53:00,
2013-08-02 19:02:00,62.0,58.0,-100.00,NNW,343,9.0,21.0,87,0.00,,,0.08,509.000000,,2013-08-03 02:02:00,
2013-08-02 19:43:00,59.0,56.0,-100.00,North,358,8.0,17.0,90,0.00,,,0.08,327.000000,,2013-08-03 02:43:00,
2013-08-02 19:52:00,59.0,56.0,-100.00,North,358,8.0,17.0,90,0.00,,,0.08,327.000000,,2013-08-03 02:52:00,
2013-08-02 20:02:00,59.0,56.0,-100.00,North,358,8.0,17.0,90,0.00,,,0.08,327.000000,,2013-08-03 03:02:00,
2013-08-02 20:32:00,57.0,57.0,-100.00,South,185,9.0,17.0,100,0.00,,,0.08,148.000000,,2013-08-03 03:32:00,
2013-08-02 20:43:00,57.0,57.0,-100.00,South,185,9.0,17.0,100,0.00,,,0.08,148.000000,,2013-08-03 03:43:00,
2013-08-02 20:53:00,57.0,57.0,-100.00,South,185,9.0,17.0,100,0.00,,,0.08,148.000000,,2013-08-03 03:53:00,
2013-08-02 21:02:00,57.0,57.0,-100.00,South,185,9.0,17.0,100,0.00,,,0.08,148.000000,,2013-08-03 04:02:00,
2013-08-02 21:43:00,55.0,55.0,-100.00,North,358,8.0,17.0,100,0.00,,,0.08,17.000000,,2013-08-03 04:43:00,
2013-08-02 21:53:00,55.0,55.0,-100.00,North,358,8.0,17.0,100,0.00,,,0.08,17.000000,,2013-08-03 04:53:00,
2013-08-02 22:02:00,55.0,55.0,-100.00,North,358,8.0,17.0,100,0.00,,,0.08,17.000000,,2013-08-03 05:02:00,
2013-08-02 22:32:00,56.0,56.0,-100.00,North,1,6.0,14.0,100,0.00,,,0.07,1.000000,,2013-08-03 05:32:00,
2013-08-02 22:42:00,56.0,56.0,-100.00,North,1,6.0,14.0,100,0.00,,,0.07,1.000000,,2013-08-03 05:42:00,
2013-08-02 22:52:00,56.0,56.0,-100.00,North,1,6.0,14.0,100,0.00,,,0.07,1.000000,,2013-08-03 05:52:00,
2013-08-02 23:02:00,56.0,56.0,-100.00,North,1,6.0,14.0,100,0.00,,,0.07,1.000000,,2013-08-03 06:02:00,
2013-08-02 23:33:00,55.0,55.0,-100.00,NNE,25,0.0,11.0,100,0.00,,,-99.99,1.000000,,2013-08-03 06:33:00,
2013-08-02 23:42:00,55.0,55.0,-100.00,NNE,25,0.0,11.0,100,0.00,,,-99.99,1.000000,,2013-08-03 06:42:00,
2013-08-02 23:52:00,55.0,55.0,-100.00,NNE,25,0.0,11.0,100,0.00,,,-99.99,1.000000,,2013-08-03 06:52:00,